{"data":{"norad_id":40971,"intl_designator":"2015-058H","name":"LMRST-SAT","alt_names":[],"object_type":"PAYLOAD","status":"ACTIVE","operator":null,"country":"US","launch_date":"2015-10-08","launch_site_code":"AFWTR","launch_vehicle":null,"mission":null,"orbit_class":"UNKNOWN","rcs_meters":null,"size_class":null,"mass_kg":null,"dimensions":null,"purposes":["tech_demo"],"wikipedia_slug":null,"has_3d_model":false,"image_url":null,"decayed_at":null,"tle_current":{"epoch":"2026-09-19T16:36:37.752768Z","epoch_age_seconds":91645,"freshness":"FRESH","line1":"1 40971U 15058H   26262.69210362  .00000992  00000+0  98513-4 0  9996","line2":"2 40971  64.7763 341.6992 0140203  23.1817 337.5536 14.90998480127646","mean_motion":14.9099848,"eccentricity":0.0140203,"inclination_deg":64.7763,"raan_deg":341.6992,"arg_perigee_deg":23.1817,"mean_anomaly_deg":337.5536,"bstar":9.8513e-5,"rev_number":12764,"period_min":96.579575319218,"perigee_km":497.05790252363,"apogee_km":692.58382479536,"semimajor_km":6972.9578636595,"source":"CELESTRAK","updated_at":"2026-09-20T09:00:48.029305Z"}}}